Regional Weather Roundup
Issued by NWS San Diego, CA

Home | Current Version | Previous Version | Text Only | Print | Product List | Glossary On
Versions: 1 2 3 4 5 6 7 8 9 10 11 12 13 14 15 16 17 18 19 20 21 22 23 24 25 26 27 28 29 30 31 32 33 34 35 36 37 38 39 40 41 42 43 44 45 46 47 48 49 50
000
ASUS46 KSGX 281411
RWRSGX

SAN DIEGO HOURLY WEATHER ROUNDUP
NATIONAL WEATHER SERVICE SAN DIEGO CA
700 AM PDT TUE JUL 28 2015

NOTE: "FAIR" INDICATES FEW OR NO CLOUDS BELOW 12,000 FEET WITH NO
SIGNIFICANT WEATHER AND/OR OBSTRUCTIONS TO VISIBILITY.

CAZ042-043-060-061-PZZ750-775-281500-

GREATER SAN DIEGO AREA

CITY           SKY/WX    TMP DP  RH WIND       PRES   REMARKS
LINDBERGH FLD  CLOUDY    69  61  75 CALM      29.92R
POINT LOMA       N/A     65  59  82 W2          N/A
NATIONAL CITY    N/A     67  63  88 W3        29.91R
CHULA VISTA      N/A     63  61  93 CALM      29.84R
IMPERIAL BEACH CLOUDY    66  62  87 CALM      29.91R
BROWN FIELD    CLOUDY    64  60  87 CALM      29.91R
MIRAMAR MCAS   PTSUNNY   68  61  78 CALM      29.91R
MONTGOMERY FLD CLOUDY    66  61  84 SE3       29.91R

$$

NORTH SAN DIEGO COUNTY

CITY           SKY/WX    TMP DP  RH WIND       PRES   REMARKS
OCEANSIDE AP   CLOUDY    63  59  87 CALM      29.90R
OCEANSIDE HBR    N/A     64  61  90 NE5       29.92S
VISTA            N/A     60  55  83 CALM      29.88S
CARLSBAD       CLOUDY    66  60  81 CALM      29.89S
DEL MAR          N/A     64  63  96 CALM      29.92R
LA JOLLA SCRIP   N/A    N/A N/A N/A CALM      29.87S
FALLBROOK        N/A     60  60 100 CALM      29.92R
ESCONDIDO        N/A     62  59  90 CALM      29.92R
SAN MARCOS       N/A     61  57  87 CALM      29.88S
POWAY            N/A     59  55  89 CALM      29.91R

$$

EAST SAN DIEGO COUNTY

CITY           SKY/WX    TMP DP  RH WIND       PRES   REMARKS
RAMONA         SUNNY     59  55  87 CALM      29.92R
SANTEE LAKES     N/A     60  58  93 CALM      29.90R
LA MESA          N/A     62  60  94 CALM      29.84R
JAMUL            N/A     57  55  93 CALM      29.89R
DESCANSO N       N/A     58  35  42 E6        29.79R
CAMPO            N/A     53  40  61 NE5       29.94R

$$

ORANGE COUNTY AND THE LOS ANGELES BASIN

CITY           SKY/WX    TMP DP  RH WIND       PRES   REMARKS
JOHN WAYNE AP  PTSUNNY   69  62  78 NE3       29.90R
LAKE FOREST FR   N/A     60  56  87 CALM      29.80R
SANTA ANA        N/A     68  63  83 CALM      29.85S
HUNTINGTON BCH   N/A     67  63  88 CALM      29.91S
LOS ALAMITOS   CLOUDY    69  63  80 S2        29.90R
FULLERTON      CLOUDY    69  62  78 CALM      29.89S
LONG BEACH     CLOUDY    70  61  73 S3        29.90R
L.A. AP        CLOUDY    68  61  78 CALM      29.90R

$$

THE INLAND EMPIRE

CITY           SKY/WX    TMP DP  RH WIND       PRES   REMARKS
CORONA         SUNNY     62  60  93 CALM      29.91S
CHINO          SUNNY     64  61  90 CALM      29.92R
ONTARIO        SUNNY     66  60  81 CALM      29.91R
SAN BERNARDINO SUNNY     64  54  68 CALM      29.92
RIVERSIDE AP   SUNNY     65  59  81 CALM      29.91S
MORENO VALLEY    N/A     62  61  96 CALM      29.87S
MARCH ARB      SUNNY     65  62  89 CALM      29.92R
HORSETHIEF CYN   N/A     63  53  70 CALM      29.91S
PERRIS           N/A     63  59  86 CALM      29.95R
MENIFEE          N/A     62  57  83 SW1       29.97R
HEMET EAST       N/A     62  48  59 CALM      29.90S
FRENCH VALLEY  FAIR      61  54  77 CALM      29.93S
TEMECULA         N/A     59  56  91 CALM      29.89R

$$

SAN BERNARDINO AND RIVERSIDE COUNTY MOUNTAINS

CITY           SKY/WX    TMP DP  RH WIND       PRES   REMARKS
BIG BEAR AP    SUNNY     43  32  65 CALM      30.22S
ANGELUS OAKS     N/A     56  35  44 CALM      29.78R
PINE COVE        N/A     64  30  28 CALM      29.84S

$$

SOUTHERN DESERT INCLUDING THE COACHELLA VALLEY

CITY           SKY/WX    TMP DP  RH WIND       PRES   REMARKS
PALM SPRINGS   SUNNY     79  56  45 CALM      29.82R
THOUSAND PALMS   N/A     82  52  34 W9        29.78R
PALM DESERT      N/A     76  61  59 CALM      26.48S
THERMAL        SUNNY     76  58  53 N3        29.77R
BLYTHE         SUNNY     80  53  39 N3        29.81R
IMPERIAL AP    SUNNY     76  58  53 CALM      29.78R
EL CENTRO NAS  MOSUNNY   76  42  29 CALM      29.80R
YUMA AZ        MOSUNNY   84  66  54 SE5       29.80R

$$

UPPER DESERT

CITY           SKY/WX    TMP DP  RH WIND       PRES   REMARKS
VICTORVILLE AP SUNNY     66  48  52 CALM      29.98S
HESPERIA         N/A     63  47  57 W2        29.95R
APPLE VALLEY     N/A     61  53  72 CALM      30.04S
PALMDALE       SUNNY     67  40  37 SW7       29.96R
LANCASTER      SUNNY     62  46  55 CALM      29.95R
EDWARDS AFB    SUNNY     64  44  49 N2        29.93R
DAGGETT        SUNNY     73  47  39 W10       29.92R
NEEDLES        SUNNY     85  27  12 CALM      29.84R

$$

REGIONAL REPORTS

CITY           SKY/WX    TMP DP  RH WIND       PRES   REMARKS
SANTA BARBARA  MOCLDY    62  58  86 CALM      29.90R
LAS VEGAS NV   SUNNY     83  29  14 NW3       29.90R
PHOENIX AZ     PTSUNNY   90  58  33 CALM      29.87R
TIJUANA        CLOUDY    64  57  77 CALM      29.93R

$$

OFFSHORE ISLANDS

CITY           SKY/WX    TMP DP  RH WIND       PRES   REMARKS
CATALINA ARPT  CLOUDY    59  58  96 NE5       29.94R FOG

$$

MARINE AND OFFSHORE BUOY REPORTS

STATION/POSITION SKY/WX   TEMP    WIND        PRES    SWELL
                          AIR SEA DIR/SP/G            HT/PER/DIR
                          (F)     (DEG/KT/KT) (MB)    (FT/S/D)
TANNER BANKS               65 68  310/ 14/ 17 1012.7R   5/320/ 9
S CLEMENTE BASIN           64 70  290/  6/  8 1012.6R   5/250/17
SAN NICOLAS IS.               66                N/A     3/300/11
SO. S. ROSA ISLA           62 65  330/ 10/ 12 1011.7R   7/ 8
W. S. BARBARA CH           58 60  320/ 10/ 12 1011.8R   7/310/ 9
M. S. BARBARA CH           64 66  230/  6/  8 1012.5R
S. MONICA BASIN            66 71  130/  6/ 10 1012.4R   3/220/17
S PEDRO CHANNEL               71                N/A     2/190/12
DANA POINT                    71                N/A     2/200/18
OCEANSIDE OFFSHR              72                N/A     3/220/17
TORREY PINES OTR              71                N/A     3/220/18
LA JOLLA 1                 67 72   90/  3/  3 1012.0R
MISSION BAY BUOY              71                N/A     3/220/17
SAN DIEGO BAY                 74              1012.7R
POINT LOMA SOUTH              71                N/A     3/220/18

$$



USA.gov is the U.S. government's official web portal to all federal, state and local government web resources and services.